Henderson, KY

8:29 PM CDT on September 22, 2019 (GMT -0500)
Henderson City-County

Weather History for KEHR - May, 2019

Change the Weather History Date:

Saturday, May 4, 2019

  Actual Average Record
Temperature  
Mean Temperature 60 °F -  
Max Temperature 63 °F 73 °F 91 °F (1959)
Min Temperature 57 °F 48 °F 33 °F (1954)
Degree Days  
Heating Degree Days 5    
Growing Degree Days 10 (Base 50)    
Moisture  
Dew Point 59 °F    
Average Humidity 94    
Maximum Humidity 100    
Minimum Humidity 82    
Precipitation  
Precipitation 0.52 in - - ()
Sea Level Pressure  
Sea Level Pressure 29.90 in    
Wind  
Wind Speed 5 mph (NNE)    
Max Wind Speed 12 mph    
Max Gust Speed 16 mph    
Visibility 8 miles    
Events Rain    
Averages and records for this station are not official NWS values.
T = Trace of Precipitation, MM = Missing Value Source: NWS Daily Summary

Daily Weather History Graph

Daily Weather History Graph

Search for Another Location

Airport or City:

Astronomy

May. 04, 2019 Rise Set
Actual Time 5:51 AM CDT 7:43 PM CDT
Civil Twilight 5:23 AM CDT 8:12 PM CDT
Nautical Twilight 4:48 AM CDT 8:47 PM CDT
Astronomical Twilight 4:11 AM CDT 9:24 PM CDT
Moon 6:01 AM CDT (5/4) 7:34 PM CDT (5/4)
Length of Visible Light 14h 49m
Length of Day
13h 52m
Waning Crescent, 0% of the Moon is Illuminated
May 4
Waning Crescent
May 4
New
May 11
First Quarter
May 18
Full
May 26
Last Quarter

Hourly Weather History & Observations

Time (CDT) Temp. Dew Point Humidity Pressure Visibility Wind Dir Wind Speed Gust Speed Precip Events Conditions
12:56 AM 61.0 °F 59.0 °F 93% 29.98 in 7.0 mi NNE 3.5 mph - N/A   Partly Cloudy
1:56 AM 61.0 °F 59.0 °F 93% 29.97 in 8.0 mi ENE 3.5 mph - N/A   Clear
2:56 AM 61.0 °F 59.0 °F 93% 29.95 in 8.0 mi East 3.5 mph - N/A   Clear
3:56 AM 61.0 °F 59.0 °F 93% 29.94 in 8.0 mi Calm Calm - 0.00 in Rain Light Rain
4:56 AM 61.0 °F 59.0 °F 93% 29.93 in 7.0 mi Calm Calm - 0.00 in   Scattered Clouds
5:56 AM 60.1 °F 60.1 °F 100% 29.93 in 3.0 mi East 4.6 mph - 0.06 in Rain Rain
6:06 AM 60.8 °F 60.8 °F 100% 29.90 in 2.5 mi ENE 5.8 mph - 0.02 in Rain Light Rain
6:25 AM 60.8 °F 60.8 °F 100% 29.90 in 3.0 mi ENE 3.5 mph - 0.04 in Rain Light Rain
6:56 AM 61.0 °F 60.1 °F 97% 29.92 in 4.0 mi East 6.9 mph - 0.04 in Rain Light Rain
7:56 AM 62.1 °F 60.1 °F 93% 29.91 in 6.0 mi East 5.8 mph - 0.00 in   Mostly Cloudy
8:56 AM 63.0 °F 61.0 °F 93% 29.91 in 6.0 mi ESE 5.8 mph - 0.01 in   Mostly Cloudy
9:24 AM 62.6 °F 60.8 °F 94% 29.88 in 5.0 mi Calm Calm - 0.00 in Rain Light Rain
9:31 AM 62.6 °F 60.8 °F 94% 29.89 in 6.0 mi Calm Calm - 0.00 in Rain Light Rain
9:56 AM 62.1 °F 61.0 °F 96% 29.92 in 1.8 mi NW 11.5 mph - 0.22 in Rain Heavy Rain
10:04 AM 62.6 °F 60.8 °F 94% 29.89 in 2.5 mi NNW 8.1 mph - 0.12 in Rain Heavy Rain
10:09 AM 60.8 °F 60.8 °F 100% 29.89 in 4.0 mi NW 8.1 mph - 0.13 in Rain Rain
10:24 AM 60.8 °F 60.8 °F 100% 29.90 in 8.0 mi NW 6.9 mph - 0.14 in Rain Light Rain
10:34 AM 60.8 °F 60.8 °F 100% 29.90 in 7.0 mi NNW 5.8 mph - 0.15 in Rain Light Rain
10:56 AM 61.0 °F 60.1 °F 97% 29.93 in 10.0 mi North 4.6 mph - 0.15 in Rain Light Rain
11:15 AM 60.8 °F 59.0 °F 94% 29.89 in 6.0 mi Variable 5.8 mph - 0.02 in Rain Light Rain
11:41 AM 60.8 °F 60.8 °F 100% 29.89 in 8.0 mi NNE 5.8 mph - 0.04 in Rain Light Rain
11:56 AM 61.0 °F 60.1 °F 97% 29.91 in 10.0 mi North 8.1 mph - 0.04 in   Partly Cloudy
12:44 PM 60.8 °F 60.8 °F 100% 29.88 in 8.0 mi Variable 5.8 mph - 0.00 in Rain Light Rain
12:56 PM 61.0 °F 60.1 °F 97% 29.91 in 9.0 mi North 6.9 mph - 0.00 in Rain Light Rain
1:56 PM 63.0 °F 60.1 °F 90% 29.90 in 10.0 mi NNE 8.1 mph - 0.00 in   Overcast
2:56 PM 62.1 °F 59.0 °F 90% 29.89 in 10.0 mi North 9.2 mph 16.1 mph N/A   Overcast
3:56 PM 61.0 °F 57.9 °F 90% 29.89 in 10.0 mi North 9.2 mph - N/A   Overcast
4:56 PM 60.1 °F 57.0 °F 90% 29.89 in 10.0 mi North 8.1 mph - N/A   Overcast
5:56 PM 60.1 °F 57.0 °F 90% 29.88 in 10.0 mi North 8.1 mph - N/A   Overcast
6:56 PM 60.1 °F 55.9 °F 86% 29.87 in 10.0 mi North 10.4 mph - N/A   Overcast
7:07 PM 60.8 °F 55.4 °F 82% 29.84 in 10.0 mi North 11.5 mph - N/A   Overcast
7:56 PM 59.0 °F 55.9 °F 90% 29.88 in 10.0 mi North 9.2 mph - N/A   Overcast
8:40 PM 59.0 °F 55.4 °F 88% 29.86 in 10.0 mi North 10.4 mph - N/A   Overcast
8:56 PM 59.0 °F 55.9 °F 90% 29.89 in 10.0 mi North 6.9 mph - N/A   Overcast
9:56 PM 57.9 °F 55.0 °F 90% 29.91 in 10.0 mi North 8.1 mph - N/A   Overcast
10:56 PM 57.9 °F 55.0 °F 90% 29.90 in 10.0 mi North 9.2 mph - N/A   Overcast
11:56 PM 57.0 °F 54.0 °F 89% 29.89 in 10.0 mi North 11.5 mph - N/A   Overcast